This is the latest recevied weather packets stored in our database for station/object PY1LEO-13. If no packets are shown the sender has not sent any weather packets the latest 10 day(s).
| Time | Temp. | Humidity | Pressure | Rain* | Wind** | Luminosity | Snow |
|---|---|---|---|---|---|---|---|
| 1778072467 | 28.33° C | 60% | 1021.7 hPa | - | - | - | - |
| 1778072166 | 28.89° C | 58% | 1021.8 hPa | - | - | - | - |
| 1778071866 | 28.33° C | 59% | 1021.8 hPa | - | - | - | - |
| 1778071566 | 27.78° C | 61% | 1021.9 hPa | - | - | - | - |
| 1778071266 | 26.67° C | 63% | 1021.9 hPa | - | - | - | - |
| 1778070966 | 27.22° C | 62% | 1022 hPa | - | - | - | - |
| 1778070666 | 27.22° C | 62% | 1022 hPa | - | - | - | - |
| 1778070367 | 27.78° C | 62% | 1022 hPa | - | - | - | - |
| 1778070066 | 27.78° C | 62% | 1022 hPa | - | - | - | - |
| 1778069766 | 27.78° C | 62% | 1022 hPa | - | - | - | - |
| 1778069466 | 27.22° C | 63% | 1022 hPa | - | - | - | - |
| 1778069166 | 27.22° C | 62% | 1021.9 hPa | - | - | - | - |
| 1778068866 | 27.22° C | 63% | 1021.9 hPa | - | - | - | - |
| 1778068566 | 26.67° C | 63% | 1021.8 hPa | - | - | - | - |
| 1778068266 | 26.67° C | 63% | 1021.7 hPa | - | - | - | - |
| 1778067966 | 26.67° C | 63% | 1021.7 hPa | - | - | - | - |
| 1778067666 | 26.67° C | 63% | 1021.6 hPa | - | - | - | - |
| 1778067366 | 26.11° C | 63% | 1021.6 hPa | - | - | - | - |
| 1778067066 | 26.11° C | 64% | 1021.5 hPa | - | - | - | - |
| 1778066766 | 26.11° C | 64% | 1021.5 hPa | - | - | - | - |
| 1778066466 | 26.11° C | 64% | 1021.4 hPa | - | - | - | - |
| 1778066166 | 26.11° C | 64% | 1021.4 hPa | - | - | - | - |
| 1778065866 | 26.11° C | 64% | 1021.4 hPa | - | - | - | - |
| 1778065566 | 26.11° C | 64% | 1021.2 hPa | - | - | - | - |
| 1778065266 | 26.11° C | 64% | 1021.1 hPa | - | - | - | - |
* Rain since midnight (hover to see other rain measurements)
** Current wind speed in m/s (hover to see current wind gust speed)